Time,TemperatureF,DewpointF,PressureIn,WindDirection,WindDirectionDegrees,WindSpeedMPH,WindSpeedGustMPH,Humidity,HourlyPrecipIn,Conditions,Clouds,dailyrainin,SoftwareType,DateUTC
2013-11-26 00:01:00,29.1,22.2,18.58,SSW,197,4.7,8.9,75,0.00,,,0.00,VWS V14.01,2013-11-26 05:01:00,
2013-11-26 00:02:00,29.1,22.2,18.58,SSW,196,6.0,10.1,75,0.00,,,0.00,VWS V14.01,2013-11-26 05:02:00,
2013-11-26 00:03:00,29.1,22.2,18.58,SSW,207,4.0,10.1,75,0.00,,,0.00,VWS V14.01,2013-11-26 05:03:00,
2013-11-26 00:04:00,29.1,22.2,18.58,South,172,3.4,8.9,75,0.00,,,0.00,VWS V14.01,2013-11-26 05:04:00,
2013-11-26 00:05:00,29.1,22.2,18.58,SSW,197,3.4,6.7,75,0.00,,,0.00,VWS V14.01,2013-11-26 05:05:00,
2013-11-26 00:11:00,29.1,21.9,18.58,SSW,199,4.7,7.8,74,0.00,,,0.00,VWS V14.01,2013-11-26 05:11:00,
2013-11-26 00:13:00,29.1,21.9,18.58,SW,230,4.7,8.9,74,0.00,,,0.00,VWS V14.01,2013-11-26 05:13:00,
2013-11-26 00:18:00,29.1,21.9,18.58,South,179,4.7,7.8,74,0.00,,,0.00,VWS V14.01,2013-11-26 05:18:00,
2013-11-26 00:24:00,28.9,21.7,18.58,South,174,5.4,8.9,74,0.00,,,0.00,VWS V14.01,2013-11-26 05:24:00,
2013-11-26 00:29:00,28.9,21.7,18.58,SW,230,5.4,8.9,74,0.00,,,0.00,VWS V14.01,2013-11-26 05:29:00,
2013-11-26 00:35:00,28.9,21.7,18.58,SW,219,5.4,8.9,74,0.00,,,0.00,VWS V14.01,2013-11-26 05:35:00,
2013-11-26 00:41:00,28.9,21.7,18.58,SSW,211,5.4,12.3,74,0.00,,,0.00,VWS V14.01,2013-11-26 05:41:00,
2013-11-26 00:46:00,28.9,21.7,18.58,South,187,0.0,10.1,74,0.00,,,0.00,VWS V14.01,2013-11-26 05:46:00,
2013-11-26 00:52:00,28.9,21.7,18.58,South,187,0.0,10.1,74,0.00,,,0.00,VWS V14.01,2013-11-26 05:52:00,
2013-11-26 00:57:00,28.9,21.7,18.58,South,187,4.0,7.8,74,0.00,,,0.00,VWS V14.01,2013-11-26 05:57:00,
2013-11-26 01:02:00,28.9,21.7,18.58,South,178,5.4,14.5,74,0.00,,,0.00,VWS V14.01,2013-11-26 06:02:00,
2013-11-26 01:08:00,28.8,21.2,18.58,SW,222,4.7,10.1,73,0.00,,,0.00,VWS V14.01,2013-11-26 06:08:00,
2013-11-26 01:14:00,28.8,21.2,18.58,South,186,4.0,6.7,73,0.00,,,0.00,VWS V14.01,2013-11-26 06:14:00,
2013-11-26 01:19:00,28.8,21.2,18.58,SW,217,3.4,7.8,73,0.00,,,0.00,VWS V14.01,2013-11-26 06:19:00,
2013-11-26 01:24:00,28.8,21.2,18.58,SSW,213,5.4,8.9,73,0.00,,,0.00,VWS V14.01,2013-11-26 06:24:00,
2013-11-26 01:31:00,28.8,21.2,18.58,South,187,9.4,15.7,73,0.00,,,0.00,VWS V14.01,2013-11-26 06:31:00,
2013-11-26 01:36:00,28.8,21.2,18.58,SSW,203,3.4,10.1,73,0.00,,,0.00,VWS V14.01,2013-11-26 06:36:00,
2013-11-26 01:42:00,28.8,21.2,18.58,South,170,5.4,8.9,73,0.00,,,0.00,VWS V14.01,2013-11-26 06:42:00,
2013-11-26 01:47:00,28.8,21.5,18.58,SW,223,5.4,12.3,74,0.00,,,0.00,VWS V14.01,2013-11-26 06:47:00,
2013-11-26 01:52:00,28.8,21.5,18.58,South,178,5.4,12.3,74,0.00,,,0.00,VWS V14.01,2013-11-26 06:52:00,
2013-11-26 01:57:00,28.8,21.5,18.58,SSW,197,6.0,10.1,74,0.00,,,0.00,VWS V14.01,2013-11-26 06:57:00,
2013-11-26 02:03:00,28.8,21.5,18.58,SW,219,8.1,13.4,74,0.00,,,0.00,VWS V14.01,2013-11-26 07:03:00,
2013-11-26 02:08:00,28.8,21.5,18.58,SSE,158,4.0,7.8,74,0.00,,,0.00,VWS V14.01,2013-11-26 07:08:00,
2013-11-26 02:13:00,28.9,21.7,18.58,SW,223,4.0,12.3,74,0.00,,,0.00,VWS V14.01,2013-11-26 07:13:00,
2013-11-26 02:18:00,28.9,21.7,18.58,South,179,8.1,17.9,74,0.00,,,0.00,VWS V14.01,2013-11-26 07:18:00,
2013-11-26 02:23:00,28.9,21.7,18.58,SW,224,4.7,7.8,74,0.00,,,0.00,VWS V14.01,2013-11-26 07:23:00,
2013-11-26 02:28:00,28.9,21.4,18.58,SSW,203,3.4,6.7,73,0.00,,,0.00,VWS V14.01,2013-11-26 07:28:00,
2013-11-26 02:34:00,28.9,21.4,18.58,SW,217,5.4,13.4,73,0.00,,,0.00,VWS V14.01,2013-11-26 07:34:00,
2013-11-26 02:39:00,29.1,21.6,18.58,SSE,148,4.0,8.9,73,0.00,,,0.00,VWS V14.01,2013-11-26 07:39:00,
2013-11-26 02:44:00,28.9,21.4,18.58,South,185,6.0,14.5,73,0.00,,,0.00,VWS V14.01,2013-11-26 07:44:00,
2013-11-26 02:50:00,28.9,21.4,18.58,South,171,4.0,13.4,73,0.00,,,0.00,VWS V14.01,2013-11-26 07:50:00,
2013-11-26 02:56:00,28.9,21.4,18.58,SSE,156,4.7,10.1,73,0.00,,,0.00,VWS V14.01,2013-11-26 07:56:00,
2013-11-26 03:01:00,28.9,21.4,18.58,South,191,5.4,14.5,73,0.00,,,0.00,VWS V14.01,2013-11-26 08:01:00,
2013-11-26 03:06:00,28.9,21.4,18.58,SW,221,6.0,10.1,73,0.00,,,0.00,VWS V14.01,2013-11-26 08:06:00,
2013-11-26 03:11:00,28.9,21.4,18.58,SSW,197,4.7,7.8,73,0.00,,,0.00,VWS V14.01,2013-11-26 08:11:00,
2013-11-26 03:17:00,28.9,21.4,18.58,South,173,4.7,13.4,73,0.00,,,0.00,VWS V14.01,2013-11-26 08:17:00,
2013-11-26 03:22:00,28.9,21.4,18.58,SW,236,4.7,10.1,73,0.00,,,0.00,VWS V14.01,2013-11-26 08:22:00,
2013-11-26 03:27:00,28.9,21.4,18.58,South,187,0.0,6.7,73,0.00,,,0.00,VWS V14.01,2013-11-26 08:27:00,
2013-11-26 03:33:00,28.9,21.4,18.58,SSW,193,4.0,10.1,73,0.00,,,0.00,VWS V14.01,2013-11-26 08:33:00,
2013-11-26 03:38:00,28.9,21.4,18.58,SSW,202,4.0,10.1,73,0.00,,,0.00,VWS V14.01,2013-11-26 08:38:00,
2013-11-26 03:43:00,28.9,21.4,18.58,South,182,6.0,12.3,73,0.00,,,0.00,VWS V14.01,2013-11-26 08:43:00,
2013-11-26 03:48:00,28.8,21.2,18.58,SW,230,9.4,15.7,73,0.00,,,0.00,VWS V14.01,2013-11-26 08:48:00,
2013-11-26 03:54:00,28.8,21.2,18.58,SSW,205,6.0,10.1,73,0.00,,,0.00,VWS V14.01,2013-11-26 08:54:00,
2013-11-26 03:59:00,28.8,21.2,18.58,SSW,202,4.0,7.8,73,0.00,,,0.00,VWS V14.01,2013-11-26 08:59:00,
2013-11-26 04:06:00,28.8,21.2,18.58,SSW,192,8.1,13.4,73,0.00,,,0.00,VWS V14.01,2013-11-26 09:06:00,
2013-11-26 04:12:00,28.8,21.2,18.58,SSW,195,4.0,10.1,73,0.00,,,0.00,VWS V14.01,2013-11-26 09:12:00,
2013-11-26 04:17:00,28.8,21.2,18.58,South,184,4.7,13.4,73,0.00,,,0.00,VWS V14.01,2013-11-26 09:17:00,
2013-11-26 04:23:00,28.8,21.2,18.58,South,187,5.4,12.3,73,0.00,,,0.00,VWS V14.01,2013-11-26 09:23:00,
2013-11-26 04:29:00,28.8,21.2,18.58,SW,217,8.1,14.5,73,0.00,,,0.00,VWS V14.01,2013-11-26 09:29:00,
2013-11-26 04:35:00,28.8,21.2,18.58,South,191,0.0,13.4,73,0.00,,,0.00,VWS V14.01,2013-11-26 09:35:00,
2013-11-26 04:41:00,28.6,21.0,18.58,South,173,3.4,7.8,73,0.00,,,0.00,VWS V14.01,2013-11-26 09:41:00,
2013-11-26 04:46:00,28.6,21.0,18.58,SE,126,4.7,7.8,73,0.00,,,0.00,VWS V14.01,2013-11-26 09:46:00,
2013-11-26 04:51:00,28.6,21.0,18.58,SW,224,4.0,6.7,73,0.00,,,0.00,VWS V14.01,2013-11-26 09:51:00,
2013-11-26 04:56:00,28.6,21.0,18.58,SSE,168,9.4,15.7,73,0.00,,,0.00,VWS V14.01,2013-11-26 09:56:00,
2013-11-26 05:01:00,28.6,21.0,18.58,South,177,3.4,20.7,73,0.00,,,0.00,VWS V14.01,2013-11-26 10:01:00,
2013-11-26 05:06:00,28.6,21.0,18.58,South,174,6.0,13.4,73,0.00,,,0.00,VWS V14.01,2013-11-26 10:06:00,
2013-11-26 05:11:00,28.8,21.2,18.58,SW,232,8.1,19.0,73,0.00,,,0.00,VWS V14.01,2013-11-26 10:11:00,
2013-11-26 05:16:00,28.8,21.2,18.58,South,171,6.0,14.5,73,0.00,,,0.00,VWS V14.01,2013-11-26 10:16:00,
2013-11-26 05:22:00,28.8,21.2,18.58,South,169,4.0,8.9,73,0.00,,,0.00,VWS V14.01,2013-11-26 10:22:00,
2013-11-26 05:27:00,28.8,21.2,18.58,SSE,168,7.4,12.3,73,0.00,,,0.00,VWS V14.01,2013-11-26 10:27:00,
2013-11-26 05:32:00,28.8,21.2,18.58,SSW,212,5.4,8.9,73,0.00,,,0.00,VWS V14.01,2013-11-26 10:32:00,
2013-11-26 05:37:00,28.8,21.2,18.58,South,177,6.0,10.1,73,0.00,,,0.00,VWS V14.01,2013-11-26 10:37:00,
2013-11-26 05:43:00,28.8,21.2,18.58,South,186,5.4,10.1,73,0.00,,,0.00,VWS V14.01,2013-11-26 10:43:00,
2013-11-26 05:49:00,28.8,21.2,18.58,SSW,204,0.0,6.7,73,0.00,,,0.00,VWS V14.01,2013-11-26 10:49:00,
2013-11-26 05:54:00,28.8,21.2,18.58,SSW,196,0.0,0.0,73,0.00,,,0.00,VWS V14.01,2013-11-26 10:54:00,
2013-11-26 06:00:00,28.8,21.2,18.58,SSW,204,0.0,0.0,73,0.00,,,0.00,VWS V14.01,2013-11-26 11:00:00,
2013-11-26 06:06:00,28.8,21.2,18.58,SSW,192,4.0,7.8,73,0.00,,,0.00,VWS V14.01,2013-11-26 11:06:00,
2013-11-26 06:11:00,28.8,21.2,18.58,SE,143,0.0,7.8,73,0.00,,,0.00,VWS V14.01,2013-11-26 11:11:00,
2013-11-26 06:16:00,28.6,21.0,18.58,SE,133,0.0,10.1,73,0.00,,,0.00,VWS V14.01,2013-11-26 11:16:00,
2013-11-26 06:22:00,28.6,21.0,18.58,SSW,201,0.0,15.7,73,0.00,,,0.00,VWS V14.01,2013-11-26 11:22:00,
2013-11-26 06:27:00,28.6,21.0,18.58,South,182,0.0,7.8,73,0.00,,,0.00,VWS V14.01,2013-11-26 11:27:00,
2013-11-26 06:33:00,28.6,21.0,18.58,South,177,0.0,10.1,73,0.00,,,0.00,VWS V14.01,2013-11-26 11:33:00,
2013-11-26 06:38:00,28.6,21.0,18.58,South,181,4.7,7.8,73,0.00,,,0.00,VWS V14.01,2013-11-26 11:38:00,
2013-11-26 06:43:00,28.6,21.0,18.58,SSW,213,0.0,0.0,73,0.00,,,0.00,VWS V14.01,2013-11-26 11:43:00,
2013-11-26 06:48:00,28.6,21.0,18.58,South,183,0.0,8.9,73,0.00,,,0.00,VWS V14.01,2013-11-26 11:48:00,
2013-11-26 06:53:00,28.6,21.0,18.58,South,174,0.0,6.7,73,0.00,,,0.00,VWS V14.01,2013-11-26 11:53:00,
2013-11-26 06:58:00,28.8,21.2,18.58,SW,223,4.0,12.3,73,0.00,,,0.00,VWS V14.01,2013-11-26 11:58:00,
2013-11-26 07:03:00,28.6,21.0,18.58,South,191,0.0,7.8,73,0.00,,,0.00,VWS V14.01,2013-11-26 12:03:00,
2013-11-26 07:08:00,28.6,21.0,18.58,South,183,6.0,10.1,73,0.00,,,0.00,VWS V14.01,2013-11-26 12:08:00,
2013-11-26 07:14:00,28.6,21.0,18.58,SSW,195,4.7,8.9,73,0.00,,,0.00,VWS V14.01,2013-11-26 12:14:00,
2013-11-26 07:19:00,28.6,21.0,18.58,South,177,0.0,6.7,73,0.00,,,0.00,VWS V14.01,2013-11-26 12:19:00,
2013-11-26 07:26:00,28.6,21.0,18.58,SSE,168,0.0,0.0,73,0.00,,,0.00,VWS V14.01,2013-11-26 12:26:00,
2013-11-26 07:31:00,28.6,20.7,18.58,SSE,168,0.0,0.0,72,0.00,,,0.00,VWS V14.01,2013-11-26 12:31:00,
2013-11-26 07:37:00,28.8,20.9,18.58,South,183,4.0,6.7,72,0.00,,,0.00,VWS V14.01,2013-11-26 12:37:00,
2013-11-26 07:42:00,28.8,20.9,18.58,SE,143,0.0,0.0,72,0.00,,,0.00,VWS V14.01,2013-11-26 12:42:00,
2013-11-26 07:48:00,28.8,20.9,18.58,South,179,0.0,0.0,72,0.00,,,0.00,VWS V14.01,2013-11-26 12:48:00,
2013-11-26 07:53:00,28.8,20.9,18.58,SSE,149,5.4,8.9,72,0.00,,,0.00,VWS V14.01,2013-11-26 12:53:00,
2013-11-26 07:59:00,28.8,20.9,18.58,SSE,157,0.0,6.7,72,0.00,,,0.00,VWS V14.01,2013-11-26 12:59:00,
2013-11-26 08:04:00,28.8,20.9,18.58,South,178,5.4,8.9,72,0.00,,,0.00,VWS V14.01,2013-11-26 13:04:00,
2013-11-26 08:11:00,28.9,21.1,18.58,South,187,4.7,12.3,72,0.00,,,0.00,VWS V14.01,2013-11-26 13:11:00,
2013-11-26 08:16:00,28.9,21.1,18.58,South,181,4.0,7.8,72,0.00,,,0.00,VWS V14.01,2013-11-26 13:16:00,
2013-11-26 08:21:00,29.1,21.2,18.58,SSW,196,0.0,5.6,72,0.00,,,0.00,VWS V14.01,2013-11-26 13:21:00,
2013-11-26 08:26:00,29.3,21.4,18.58,South,180,0.0,7.8,72,0.00,,,0.00,VWS V14.01,2013-11-26 13:26:00,
2013-11-26 08:31:00,29.5,21.6,18.58,South,186,0.0,0.0,72,0.00,,,0.00,VWS V14.01,2013-11-26 13:31:00,
2013-11-26 08:36:00,29.7,21.8,18.58,South,187,0.0,8.9,72,0.00,,,0.00,VWS V14.01,2013-11-26 13:36:00,
2013-11-26 08:42:00,29.8,21.9,18.58,South,182,8.1,15.7,72,0.00,,,0.00,VWS V14.01,2013-11-26 13:42:00,
2013-11-26 08:47:00,30.0,21.8,18.58,SW,216,0.0,7.8,71,0.00,,,0.00,VWS V14.01,2013-11-26 13:47:00,
2013-11-26 08:52:00,30.2,21.9,18.58,SE,135,3.4,6.7,71,0.00,,,0.00,VWS V14.01,2013-11-26 13:52:00,
2013-11-26 08:58:00,30.4,22.1,18.58,South,172,3.4,11.2,71,0.00,,,0.00,VWS V14.01,2013-11-26 13:58:00,
2013-11-26 09:03:00,30.2,21.9,18.58,SSW,212,0.0,8.9,71,0.00,,,0.00,VWS V14.01,2013-11-26 14:03:00,
2013-11-26 09:09:00,30.2,21.9,18.58,SSW,201,0.0,7.8,71,0.00,,,0.00,VWS V14.01,2013-11-26 14:09:00,
2013-11-26 09:14:00,30.4,21.8,18.58,South,186,0.0,5.6,70,0.00,,,0.00,VWS V14.01,2013-11-26 14:14:00,
2013-11-26 09:20:00,30.6,22.0,18.58,South,187,5.4,8.9,70,0.00,,,0.00,VWS V14.01,2013-11-26 14:20:00,
2013-11-26 09:26:00,30.6,22.0,18.58,SE,144,4.0,8.9,70,0.00,,,0.00,VWS V14.01,2013-11-26 14:26:00,
2013-11-26 09:31:00,30.6,22.0,18.58,South,186,4.0,8.9,70,0.00,,,0.00,VWS V14.01,2013-11-26 14:31:00,
2013-11-26 09:36:00,30.7,22.1,18.58,SW,230,6.0,10.1,70,0.00,,,0.00,VWS V14.01,2013-11-26 14:36:00,
2013-11-26 09:41:00,30.9,22.3,18.58,South,189,0.0,7.8,70,0.00,,,0.00,VWS V14.01,2013-11-26 14:41:00,
2013-11-26 09:46:00,31.1,22.1,18.58,SSE,151,3.4,10.1,69,0.00,,,0.00,VWS V14.01,2013-11-26 14:46:00,
2013-11-26 09:52:00,30.7,21.8,18.58,South,182,4.7,7.8,69,0.00,,,0.00,VWS V14.01,2013-11-26 14:52:00,
2013-11-26 09:58:00,30.6,21.6,18.58,South,179,0.0,6.7,69,0.00,,,0.00,VWS V14.01,2013-11-26 14:58:00,
2013-11-26 10:04:00,30.9,22.0,18.58,SE,143,0.0,0.0,69,0.00,,,0.00,VWS V14.01,2013-11-26 15:04:00,
2013-11-26 10:11:00,31.1,22.1,18.58,South,184,0.0,10.1,69,0.00,,,0.00,VWS V14.01,2013-11-26 15:11:00,
2013-11-26 10:17:00,31.1,22.1,18.58,South,189,4.7,12.3,69,0.00,,,0.00,VWS V14.01,2013-11-26 15:17:00,
2013-11-26 10:23:00,31.5,22.5,18.58,SE,143,8.1,13.4,69,0.00,,,0.00,VWS V14.01,2013-11-26 15:23:00,
2013-11-26 10:29:00,32.0,22.6,18.58,SSW,203,0.0,7.8,68,0.00,,,0.00,VWS V14.01,2013-11-26 15:29:00,
2013-11-26 10:35:00,32.5,23.5,18.58,SSW,194,4.0,10.1,69,0.00,,,0.00,VWS V14.01,2013-11-26 15:35:00,
2013-11-26 10:40:00,33.3,24.2,18.58,South,186,0.0,0.0,69,0.00,,,0.00,VWS V14.01,2013-11-26 15:40:00,
2013-11-26 10:46:00,33.6,24.2,18.58,SSW,195,6.0,13.4,68,0.00,,,0.00,VWS V14.01,2013-11-26 15:46:00,
2013-11-26 10:52:00,33.6,23.9,18.58,SSW,200,0.0,0.0,67,0.00,,,0.00,VWS V14.01,2013-11-26 15:52:00,
2013-11-26 10:57:00,33.8,24.0,18.58,SW,221,0.0,7.8,67,0.00,,,0.00,VWS V14.01,2013-11-26 15:57:00,
2013-11-26 11:03:00,34.0,23.8,18.58,SSW,203,0.0,13.4,66,0.00,,,0.00,VWS V14.01,2013-11-26 16:03:00,
2013-11-26 11:08:00,34.2,24.0,18.58,SW,217,0.0,7.8,66,0.00,,,0.00,VWS V14.01,2013-11-26 16:08:00,
2013-11-26 11:14:00,34.5,24.0,18.58,South,189,0.0,8.9,65,0.00,,,0.00,VWS V14.01,2013-11-26 16:14:00,
2013-11-26 11:19:00,34.9,24.3,18.58,SSW,194,4.7,7.8,65,0.00,,,0.00,VWS V14.01,2013-11-26 16:19:00,
2013-11-26 11:24:00,34.9,24.0,18.58,South,190,0.0,5.6,64,0.00,,,0.00,VWS V14.01,2013-11-26 16:24:00,
2013-11-26 11:29:00,34.9,24.0,18.58,South,189,0.0,6.7,64,0.00,,,0.00,VWS V14.01,2013-11-26 16:29:00,
2013-11-26 11:34:00,34.7,23.4,18.58,SE,137,4.7,10.1,63,0.00,,,0.00,VWS V14.01,2013-11-26 16:34:00,
2013-11-26 11:40:00,34.2,22.5,18.58,South,179,5.4,8.9,62,0.00,,,0.00,VWS V14.01,2013-11-26 16:40:00,
2013-11-26 11:46:00,34.0,22.4,18.58,SW,225,4.0,14.5,62,0.00,,,0.00,VWS V14.01,2013-11-26 16:46:00,
2013-11-26 11:51:00,34.0,22.4,18.58,South,189,4.7,11.2,62,0.00,,,0.00,VWS V14.01,2013-11-26 16:51:00,
2013-11-26 11:57:00,34.2,22.1,18.58,SE,145,4.7,7.8,61,0.00,,,0.00,VWS V14.01,2013-11-26 16:57:00,
2013-11-26 12:02:00,34.0,22.0,18.58,South,171,4.0,7.8,61,0.00,,,0.00,VWS V14.01,2013-11-26 17:02:00,
2013-11-26 12:08:00,33.8,21.4,18.58,SW,214,0.0,10.1,60,0.00,,,0.00,VWS V14.01,2013-11-26 17:08:00,
2013-11-26 12:13:00,33.8,21.8,18.58,SW,225,4.7,7.8,61,0.00,,,0.00,VWS V14.01,2013-11-26 17:13:00,
2013-11-26 12:19:00,33.4,21.5,18.58,SW,228,0.0,12.3,61,0.00,,,0.00,VWS V14.01,2013-11-26 17:19:00,
2013-11-26 12:24:00,33.6,21.6,18.58,South,189,4.0,10.1,61,0.00,,,0.00,VWS V14.01,2013-11-26 17:24:00,
2013-11-26 12:29:00,33.6,21.6,18.58,SE,144,4.7,7.8,61,0.00,,,0.00,VWS V14.01,2013-11-26 17:29:00,
2013-11-26 12:34:00,33.6,21.6,18.58,East,96,0.0,10.1,61,0.00,,,0.00,VWS V14.01,2013-11-26 17:34:00,
2013-11-26 12:39:00,33.6,21.6,18.58,SSE,162,0.0,10.1,61,0.00,,,0.00,VWS V14.01,2013-11-26 17:39:00,
2013-11-26 12:45:00,33.6,21.6,18.58,SSW,210,4.0,10.1,61,0.00,,,0.00,VWS V14.01,2013-11-26 17:45:00,
2013-11-26 12:50:00,33.4,21.5,18.58,SSW,203,0.0,0.0,61,0.00,,,0.00,VWS V14.01,2013-11-26 17:50:00,
2013-11-26 12:55:00,33.6,21.6,18.58,SW,222,0.0,0.0,61,0.00,,,0.00,VWS V14.01,2013-11-26 17:55:00,
2013-11-26 13:00:00,33.4,21.5,18.58,SSW,212,0.0,0.0,61,0.00,,,0.00,VWS V14.01,2013-11-26 18:00:00,
2013-11-26 13:05:00,33.6,21.6,18.58,SW,217,5.4,8.9,61,0.00,,,0.00,VWS V14.01,2013-11-26 18:05:00,
2013-11-26 13:11:00,33.6,21.6,18.58,SSW,195,0.0,6.7,61,0.00,,,0.00,VWS V14.01,2013-11-26 18:11:00,
2013-11-26 13:17:00,33.6,22.0,18.58,SE,146,4.7,10.1,62,0.00,,,0.00,VWS V14.01,2013-11-26 18:17:00,
2013-11-26 13:22:00,33.6,21.6,18.58,South,172,0.0,6.7,61,0.00,,,0.00,VWS V14.01,2013-11-26 18:22:00,
2013-11-26 13:27:00,33.6,21.6,18.58,South,169,0.0,10.1,61,0.00,,,0.00,VWS V14.01,2013-11-26 18:27:00,
2013-11-26 13:32:00,33.6,21.6,18.58,SSE,163,0.0,7.8,61,0.00,,,0.00,VWS V14.01,2013-11-26 18:32:00,
2013-11-26 13:37:00,33.8,21.8,18.58,SSE,157,4.7,7.8,61,0.00,,,0.00,VWS V14.01,2013-11-26 18:37:00,
2013-11-26 13:43:00,34.2,22.1,18.58,SSW,192,4.7,13.4,61,0.00,,,0.00,VWS V14.01,2013-11-26 18:43:00,
2013-11-26 13:48:00,34.5,22.9,18.58,South,172,0.0,0.0,62,0.00,,,0.00,VWS V14.01,2013-11-26 18:48:00,
2013-11-26 13:54:00,34.9,23.2,18.58,SSW,207,0.0,5.6,62,0.00,,,0.00,VWS V14.01,2013-11-26 18:54:00,
2013-11-26 13:59:00,34.5,22.9,18.58,SSW,209,4.0,6.7,62,0.00,,,0.00,VWS V14.01,2013-11-26 18:59:00,
2013-11-26 14:05:00,34.2,22.1,18.58,SW,214,0.0,6.7,61,0.00,,,0.00,VWS V14.01,2013-11-26 19:05:00,
2013-11-26 14:11:00,34.0,22.0,18.58,SW,225,0.0,0.0,61,0.00,,,0.00,VWS V14.01,2013-11-26 19:11:00,
2013-11-26 14:16:00,34.0,22.0,18.58,SSW,210,0.0,0.0,61,0.00,,,0.00,VWS V14.01,2013-11-26 19:16:00,
2013-11-26 14:21:00,33.8,21.8,18.58,SW,224,0.0,7.8,61,0.00,,,0.00,VWS V14.01,2013-11-26 19:21:00,
2013-11-26 14:26:00,33.8,21.8,18.58,SW,221,0.0,0.0,61,0.00,,,0.00,VWS V14.01,2013-11-26 19:26:00,
2013-11-26 14:32:00,33.8,21.8,18.58,South,188,0.0,0.0,61,0.00,,,0.00,VWS V14.01,2013-11-26 19:32:00,
2013-11-26 14:37:00,33.8,21.8,18.58,SW,225,0.0,0.0,61,0.00,,,0.00,VWS V14.01,2013-11-26 19:37:00,
2013-11-26 14:42:00,33.6,22.0,18.58,SW,217,0.0,0.0,62,0.00,,,0.00,VWS V14.01,2013-11-26 19:42:00,
2013-11-26 14:47:00,33.6,22.0,18.58,South,189,3.4,7.8,62,0.00,,,0.00,VWS V14.01,2013-11-26 19:47:00,
2013-11-26 14:53:00,33.8,22.2,18.58,South,181,4.7,7.8,62,0.00,,,0.00,VWS V14.01,2013-11-26 19:53:00,
2013-11-26 14:58:00,33.8,22.2,18.58,SSW,206,4.7,10.1,62,0.00,,,0.00,VWS V14.01,2013-11-26 19:58:00,
2013-11-26 15:04:00,33.6,22.0,18.58,SSW,196,0.0,0.0,62,0.00,,,0.00,VWS V14.01,2013-11-26 20:04:00,
2013-11-26 15:09:00,33.4,21.8,18.58,SSW,205,0.0,5.6,62,0.00,,,0.00,VWS V14.01,2013-11-26 20:09:00,
2013-11-26 15:15:00,33.3,21.7,18.58,SW,223,0.0,7.8,62,0.00,,,0.00,VWS V14.01,2013-11-26 20:15:00,
2013-11-26 15:20:00,33.1,21.5,18.58,SSW,207,0.0,6.7,62,0.00,,,0.00,VWS V14.01,2013-11-26 20:20:00,
2013-11-26 15:26:00,32.9,21.7,18.58,SSW,207,0.0,0.0,63,0.00,,,0.00,VWS V14.01,2013-11-26 20:26:00,
2013-11-26 15:31:00,32.9,21.7,18.58,SSW,194,0.0,0.0,63,0.00,,,0.00,VWS V14.01,2013-11-26 20:31:00,
2013-11-26 15:37:00,32.7,21.5,18.58,WSW,238,3.4,6.7,63,0.00,,,0.00,VWS V14.01,2013-11-26 20:37:00,
2013-11-26 15:42:00,32.7,21.5,18.58,SW,223,3.4,5.6,63,0.00,,,0.00,VWS V14.01,2013-11-26 20:42:00,
2013-11-26 15:47:00,32.7,21.9,18.58,SW,223,0.0,0.0,64,0.00,,,0.00,VWS V14.01,2013-11-26 20:47:00,
2013-11-26 15:52:00,32.5,21.7,18.58,SW,235,0.0,0.0,64,0.00,,,0.00,VWS V14.01,2013-11-26 20:52:00,
2013-11-26 15:57:00,32.5,21.7,18.58,WSW,247,4.0,7.8,64,0.00,,,0.00,VWS V14.01,2013-11-26 20:57:00,
2013-11-26 16:02:00,32.4,21.9,18.58,SW,234,0.0,6.7,65,0.00,,,0.00,VWS V14.01,2013-11-26 21:02:00,
2013-11-26 16:08:00,32.4,21.9,18.58,SW,234,4.0,8.9,65,0.00,,,0.00,VWS V14.01,2013-11-26 21:08:00,
2013-11-26 16:13:00,32.2,21.8,18.58,WSW,252,0.0,6.7,65,0.00,,,0.00,VWS V14.01,2013-11-26 21:13:00,
2013-11-26 16:18:00,32.2,22.1,18.58,WSW,242,0.0,0.0,66,0.00,,,0.00,VWS V14.01,2013-11-26 21:18:00,
2013-11-26 16:24:00,32.2,22.1,18.58,WSW,254,0.0,0.0,66,0.00,,,0.00,VWS V14.01,2013-11-26 21:24:00,
2013-11-26 16:29:00,32.2,22.1,18.58,WSW,254,0.0,0.0,66,0.00,,,0.00,VWS V14.01,2013-11-26 21:29:00,
2013-11-26 16:35:00,32.2,22.5,18.58,WNW,299,4.7,8.9,67,0.00,,,0.00,VWS V14.01,2013-11-26 21:35:00,
2013-11-26 16:41:00,32.4,22.6,18.58,WNW,303,4.7,14.5,67,0.00,,,0.00,VWS V14.01,2013-11-26 21:41:00,
2013-11-26 16:46:00,32.4,23.0,18.58,NNW,342,9.4,16.8,68,0.00,,,0.00,VWS V14.01,2013-11-26 21:46:00,
2013-11-26 16:52:00,32.2,22.5,18.58,NNE,32,7.4,14.5,67,0.00,,,0.00,VWS V14.01,2013-11-26 21:52:00,
2013-11-26 16:57:00,32.0,21.9,18.58,NNW,339,5.4,14.5,66,0.00,,,0.00,VWS V14.01,2013-11-26 21:57:00,
2013-11-26 17:02:00,31.8,21.0,18.58,WNW,302,6.0,10.1,64,0.00,,,0.00,VWS V14.01,2013-11-26 22:02:00,
2013-11-26 17:07:00,31.6,20.9,18.58,NW,326,12.1,20.1,64,0.00,,,0.00,VWS V14.01,2013-11-26 22:07:00,
2013-11-26 17:12:00,31.6,20.5,18.58,North,0,8.1,14.5,63,0.00,,,0.00,VWS V14.01,2013-11-26 22:12:00,
2013-11-26 17:18:00,31.5,20.3,18.58,NNW,342,6.0,20.1,63,0.00,,,0.00,VWS V14.01,2013-11-26 22:18:00,
2013-11-26 17:24:00,31.3,19.8,18.58,NW,320,5.4,15.7,62,0.00,,,0.00,VWS V14.01,2013-11-26 22:24:00,
2013-11-26 17:29:00,31.1,19.2,18.58,NW,324,9.4,16.8,61,0.00,,,0.00,VWS V14.01,2013-11-26 22:29:00,
2013-11-26 17:35:00,31.1,18.9,18.58,North,1,8.1,15.7,60,0.00,,,0.00,VWS V14.01,2013-11-26 22:35:00,
2013-11-26 17:41:00,30.9,18.3,18.58,North,0,8.1,15.7,59,0.00,,,0.00,VWS V14.01,2013-11-26 22:41:00,
2013-11-26 17:46:00,30.7,18.1,18.58,NNW,335,4.0,12.3,59,0.00,,,0.00,VWS V14.01,2013-11-26 22:46:00,
2013-11-26 17:51:00,30.6,18.0,18.58,North,349,9.4,19.0,59,0.00,,,0.00,VWS V14.01,2013-11-26 22:51:00,
2013-11-26 17:56:00,30.6,17.6,18.58,North,357,8.7,20.1,58,0.00,,,0.00,VWS V14.01,2013-11-26 22:56:00,
2013-11-26 18:01:00,30.4,17.4,18.58,NNW,348,8.1,19.0,58,0.00,,,0.00,VWS V14.01,2013-11-26 23:01:00,
2013-11-26 18:07:00,30.2,17.2,18.58,WNW,298,8.1,20.1,58,0.00,,,0.00,VWS V14.01,2013-11-26 23:07:00,
2013-11-26 18:13:00,29.8,17.3,18.58,North,353,15.8,26.3,59,0.00,,,0.00,VWS V14.01,2013-11-26 23:13:00,
2013-11-26 18:18:00,29.7,17.5,18.58,NW,310,8.7,16.8,60,0.00,,,0.00,VWS V14.01,2013-11-26 23:18:00,
2013-11-26 18:23:00,29.5,17.3,18.58,NNW,345,6.0,13.4,60,0.00,,,0.00,VWS V14.01,2013-11-26 23:23:00,
2013-11-26 18:28:00,29.5,17.7,18.58,North,357,6.0,12.3,61,0.00,,,0.00,VWS V14.01,2013-11-26 23:28:00,
2013-11-26 18:34:00,29.1,18.1,18.58,NNW,334,8.1,15.7,63,0.00,,,0.00,VWS V14.01,2013-11-26 23:34:00,
2013-11-26 18:39:00,28.9,18.3,18.58,North,357,8.1,14.5,64,0.00,,,0.00,VWS V14.01,2013-11-26 23:39:00,
2013-11-26 18:44:00,28.8,18.1,18.58,NNW,339,6.0,13.4,64,0.00,,,0.00,VWS V14.01,2013-11-26 23:44:00,
2013-11-26 18:49:00,28.8,18.1,18.58,North,0,8.7,14.5,64,0.00,,,0.00,VWS V14.01,2013-11-26 23:49:00,
2013-11-26 18:54:00,28.8,18.5,18.58,North,2,5.4,14.5,65,0.00,,,0.00,VWS V14.01,2013-11-26 23:54:00,
2013-11-26 18:59:00,28.6,18.3,18.58,NNW,342,5.4,14.5,65,0.00,,,0.00,VWS V14.01,2013-11-26 23:59:00,
2013-11-26 19:04:00,28.6,18.3,18.58,North,357,6.0,14.5,65,0.00,,,0.00,VWS V14.01,2013-11-27 00:04:00,
2013-11-26 19:11:00,28.6,18.3,18.58,North,353,4.7,13.4,65,0.00,,,0.00,VWS V14.01,2013-11-27 00:11:00,
2013-11-26 19:16:00,28.6,18.3,18.58,North,353,4.0,10.1,65,0.00,,,0.00,VWS V14.01,2013-11-27 00:16:00,
2013-11-26 19:21:00,28.6,18.7,18.58,NNW,343,4.0,10.1,66,0.00,,,0.00,VWS V14.01,2013-11-27 00:21:00,
2013-11-26 19:27:00,28.6,18.7,18.58,North,357,4.7,7.8,66,0.00,,,0.00,VWS V14.01,2013-11-27 00:27:00,
2013-11-26 19:32:00,28.6,18.7,18.58,North,349,4.7,8.9,66,0.00,,,0.00,VWS V14.01,2013-11-27 00:32:00,
2013-11-26 19:38:00,28.4,18.9,18.58,North,353,4.0,8.9,67,0.00,,,0.00,VWS V14.01,2013-11-27 00:38:00,
2013-11-26 19:43:00,28.4,18.9,18.58,North,353,4.0,10.1,67,0.00,,,0.00,VWS V14.01,2013-11-27 00:43:00,
2013-11-26 19:49:00,28.2,18.7,18.58,North,353,5.4,8.9,67,0.00,,,0.00,VWS V14.01,2013-11-27 00:49:00,
2013-11-26 19:54:00,28.2,19.0,18.58,North,357,4.0,10.1,68,0.00,,,0.00,VWS V14.01,2013-11-27 00:54:00,
2013-11-26 19:59:00,28.2,19.0,18.58,North,353,4.7,11.2,68,0.00,,,0.00,VWS V14.01,2013-11-27 00:59:00,
2013-11-26 20:06:00,28.0,18.9,18.58,North,10,4.0,7.8,68,0.00,,,0.00,VWS V14.01,2013-11-27 01:06:00,
2013-11-26 20:11:00,27.9,18.7,18.58,North,357,5.4,13.4,68,0.00,,,0.00,VWS V14.01,2013-11-27 01:11:00,
2013-11-26 20:16:00,27.9,18.3,18.58,North,1,4.7,10.1,67,0.00,,,0.00,VWS V14.01,2013-11-27 01:16:00,
2013-11-26 20:22:00,27.9,18.3,18.58,North,1,4.7,8.9,67,0.00,,,0.00,VWS V14.01,2013-11-27 01:22:00,
2013-11-26 20:27:00,27.9,18.3,18.58,North,2,5.4,10.1,67,0.00,,,0.00,VWS V14.01,2013-11-27 01:27:00,
2013-11-26 20:33:00,27.9,18.0,18.58,North,6,4.0,7.8,66,0.00,,,0.00,VWS V14.01,2013-11-27 01:33:00,
2013-11-26 20:38:00,27.7,17.5,18.58,North,353,4.7,10.1,65,0.00,,,0.00,VWS V14.01,2013-11-27 01:38:00,
2013-11-26 20:44:00,27.7,17.5,18.58,North,5,4.0,10.1,65,0.00,,,0.00,VWS V14.01,2013-11-27 01:44:00,
2013-11-26 20:51:00,27.7,17.1,18.58,North,3,6.0,10.1,64,0.00,,,0.00,VWS V14.01,2013-11-27 01:51:00,
2013-11-26 20:56:00,27.7,16.7,18.58,North,10,6.0,13.4,63,0.00,,,0.00,VWS V14.01,2013-11-27 01:56:00,
2013-11-26 21:02:00,27.5,16.2,18.58,North,7,6.0,10.1,62,0.00,,,0.00,VWS V14.01,2013-11-27 02:02:00,
2013-11-26 21:08:00,27.5,15.4,18.58,North,357,6.7,15.7,60,0.00,,,0.00,VWS V14.01,2013-11-27 02:08:00,
2013-11-26 21:13:00,27.3,14.5,18.58,North,0,8.1,14.5,58,0.00,,,0.00,VWS V14.01,2013-11-27 02:13:00,
2013-11-26 21:18:00,27.3,14.5,18.58,North,2,4.0,10.1,58,0.00,,,0.00,VWS V14.01,2013-11-27 02:18:00,
2013-11-26 21:23:00,27.1,13.9,18.58,North,10,8.1,14.5,57,0.00,,,0.00,VWS V14.01,2013-11-27 02:23:00,
2013-11-26 21:28:00,27.1,13.5,18.58,NNE,15,6.0,10.1,56,0.00,,,0.00,VWS V14.01,2013-11-27 02:28:00,
2013-11-26 21:35:00,27.1,13.5,18.58,North,3,7.4,12.3,56,0.00,,,0.00,VWS V14.01,2013-11-27 02:35:00,
2013-11-26 21:41:00,27.0,12.6,18.58,NNE,17,8.7,19.0,54,0.00,,,0.00,VWS V14.01,2013-11-27 02:41:00,
2013-11-26 21:47:00,27.0,12.6,18.58,North,5,7.4,14.5,54,0.00,,,0.00,VWS V14.01,2013-11-27 02:47:00,
2013-11-26 21:52:00,27.0,13.0,18.58,North,6,7.4,14.5,55,0.00,,,0.00,VWS V14.01,2013-11-27 02:52:00,
2013-11-26 21:57:00,27.0,12.6,18.58,North,357,7.4,19.0,54,0.00,,,0.00,VWS V14.01,2013-11-27 02:57:00,
2013-11-26 22:02:00,26.8,12.4,18.58,North,7,11.4,19.0,54,0.00,,,0.00,VWS V14.01,2013-11-27 03:02:00,
2013-11-26 22:08:00,26.8,12.4,18.58,North,0,4.7,8.9,54,0.00,,,0.00,VWS V14.01,2013-11-27 03:08:00,
2013-11-26 22:14:00,26.6,12.6,18.58,North,357,3.4,7.8,55,0.00,,,0.00,VWS V14.01,2013-11-27 03:14:00,
2013-11-26 22:19:00,26.6,12.2,18.58,North,2,0.0,6.7,54,0.00,,,0.00,VWS V14.01,2013-11-27 03:19:00,
2013-11-26 22:26:00,26.6,12.6,18.58,NNE,12,4.0,6.7,55,0.00,,,0.00,VWS V14.01,2013-11-27 03:26:00,
2013-11-26 22:31:00,26.4,12.5,18.58,North,0,0.0,8.9,55,0.00,,,0.00,VWS V14.01,2013-11-27 03:31:00,
2013-11-26 22:36:00,26.4,12.5,18.58,North,350,4.0,6.7,55,0.00,,,0.00,VWS V14.01,2013-11-27 03:36:00,
2013-11-26 22:41:00,26.4,12.5,18.58,North,353,3.4,7.8,55,0.00,,,0.00,VWS V14.01,2013-11-27 03:41:00,
2013-11-26 22:47:00,26.1,12.1,18.58,NNW,334,0.0,8.9,55,0.00,,,0.00,VWS V14.01,2013-11-27 03:47:00,
2013-11-26 22:52:00,25.9,11.9,18.58,NNW,345,0.0,0.0,55,0.00,,,0.00,VWS V14.01,2013-11-27 03:52:00,
2013-11-26 22:57:00,25.9,12.4,18.58,NNW,338,0.0,0.0,56,0.00,,,0.00,VWS V14.01,2013-11-27 03:57:00,
2013-11-26 23:02:00,25.9,12.4,18.58,NNW,333,0.0,0.0,56,0.00,,,0.00,VWS V14.01,2013-11-27 04:02:00,
2013-11-26 23:08:00,25.9,12.4,18.58,NW,306,0.0,6.7,56,0.00,,,0.00,VWS V14.01,2013-11-27 04:08:00,
2013-11-26 23:14:00,26.1,12.5,18.58,WNW,303,4.0,6.7,56,0.00,,,0.00,VWS V14.01,2013-11-27 04:14:00,
2013-11-26 23:19:00,26.1,12.1,18.58,NW,318,5.4,8.9,55,0.00,,,0.00,VWS V14.01,2013-11-27 04:19:00,
2013-11-26 23:26:00,26.1,12.1,18.58,NNW,329,5.4,10.1,55,0.00,,,0.00,VWS V14.01,2013-11-27 04:26:00,
2013-11-26 23:31:00,26.1,12.1,18.58,NW,308,6.0,10.1,55,0.00,,,0.00,VWS V14.01,2013-11-27 04:31:00,
2013-11-26 23:37:00,25.9,12.4,18.58,West,277,7.4,14.5,56,0.00,,,0.00,VWS V14.01,2013-11-27 04:37:00,
2013-11-26 23:43:00,25.3,12.2,18.58,NW,324,4.7,12.3,57,0.00,,,0.00,VWS V14.01,2013-11-27 04:43:00,
2013-11-26 23:48:00,25.0,12.3,18.58,NW,312,4.7,12.3,58,0.00,,,0.00,VWS V14.01,2013-11-27 04:48:00,
2013-11-26 23:53:00,25.0,12.7,18.58,NNW,334,6.0,10.1,59,0.00,,,0.00,VWS V14.01,2013-11-27 04:53:00,
2013-11-26 23:58:00,24.8,12.9,18.58,NNW,329,4.0,8.9,60,0.00,,,0.00,VWS V14.01,2013-11-27 04:58:00,